Regional Weather Roundup
Issued by NWS Charleston, SC

Current Version | Previous Version | Graphics & Text | Print | Product List | Glossary On
Versions: 1 2 3 4 5 6 7 8 9 10 11 12 13 14 15 16 17 18 19 20 21 22 23 24 25 26 27 28 29 30 31 32 33 34 35 36 37 38 39 40 41 42 43 44 45 46 47 48 49 50
000 ASUS42 KCHS 200610 RWRCHS REGIONAL WEATHER ROUNDUP NATIONAL WEATHER SERVICE CHARLESTON SC 100 AM EST SAT DEC 20 2014 NOTE: "FAIR" INDICATES FEW OR NO CLOUDS BELOW 12,000 FEET WITH NO SIGNIFICANT WEATHER AND/OR OBSTRUCTIONS TO VISIBILITY. NOT ALL STATIONS ARE QUALITY CONTROLLED BY THE NATIONAL WEATHER SERVICE. USE DATA WITH CAUTION...ESPECIALLY DEWPOINT OBSERVATIONS. SCZ027-030-031-034>040-042>050-200700- ...SOUTHEAST SOUTH CAROLINA... CITY SKY/WX TMP DP RH WIND PRES REMARKS N CHARLESTON CLOUDY 49 42 77 CALM 30.16F 6HR MIN TEMP: 48; 6HR MAX TEMP: 53; WATERFRONT PRK N/A 52 N/A N/A N8 N/A MOUNT PLEASANT FAIR 48 45 87 CALM 30.16F PINOPOLIS N/A 54 43 66 CALM 30.09R MONCKS CORNER FAIR 50 43 76 CALM 30.17F SUMMERVILLE NOT AVBL BEAUFORT MCAS CLOUDY 51 47 86 N5 30.15F 6HR MIN TEMP: 51; 6HR MAX TEMP: 54; BEAUFORT ARPT CLOUDY 52 50 93 NE5 30.14F HILTON HEAD IS CLOUDY 52 52 100 N3 30.16S WALTERBORO CLOUDY 50 N/A N/A E3 30.16F ALLENDALE CLOUDY 50 46 87 CALM 30.16R ...SOUTHERN MIDLANDS AND PEE DEE... CITY SKY/WX TMP DP RH WIND PRES REMARKS GEORGETOWN NOT AVBL KINGSTREE NOT AVBL ORANGEBURG CLOUDY 49 42 77 NE5 30.16F 6HR MIN TEMP: 49; 6HR MAX TEMP: 53; BARNWELL N/A 50 46 87 CALM 30.16S AIKEN CLOUDY 46 43 87 NE3 30.18F MANNING NOT AVBL COLUMBIA CLOUDY 48 40 73 CALM 30.16F 6HR MIN TEMP: 46; 6HR MAX TEMP: 55; SUMTER CLOUDY 45 38 76 NE3 30.16F 6HR MIN TEMP: 42; 6HR MAX TEMP: 46; FLORENCE CLOUDY 44 34 67 NE6 30.19R 6HR MIN TEMP: 43; 6HR MAX TEMP: 49; MYRTLE BEACH CLOUDY 46 41 81 N6 30.19S N MYRTLE BEACH CLOUDY 45 39 79 NE5 30.19S 6HR MIN TEMP: 42; 6HR MAX TEMP: 46; $$ GAZ063-065-086>088-099>101-113>116-118-119-134>141-150-200700- ...SOUTHEAST GEORGIA... CITY SKY/WX TMP DP RH WIND PRES REMARKS SAVANNAH ARPT LGT RAIN 52 48 86 E5 30.14F 6HR MIN TEMP: 50; 6HR MAX TEMP: 55; 6HR PCP: TRACE; HUNTER AAF LGT RAIN 52 50 93 E5 30.10F 6HR MIN TEMP: 49; 6HR MAX TEMP: 55; 6HR PCP: TRACE; FORT STEWART CLOUDY 50 47 90 W3 30.12S 6HR MIN TEMP: 47; 6HR MAX TEMP: 51; 6HR PCP: TRACE; STATESBORO CLOUDY 48 48 100 CALM 30.13F SYLVANIA RAIN 49 48 97 S5 30.15S CLAXTON CLOUDY 48 46 93 CALM 30.15R ...CSRA...CENTRAL AND FAR SOUTHEAST GEORGIA... CITY SKY/WX TMP DP RH WIND PRES REMARKS THOMSON CLOUDY 48 47 97 CALM 30.18F AUGUSTA-BUSH LGT RAIN 48 43 82 CALM 30.14F 6HR MIN TEMP: 47; 6HR MAX TEMP: 50; 6HR PCP: TRACE; AUGUSTA-DANIEL CLOUDY 53 43 68 E5 30.14F SWAINSBORO LGT RAIN 52 50 93 CALM 30.14F VIDALIA CLOUDY 52 45 76 CALM 30.15R EASTMAN CLOUDY 48 48 100 CALM 30.16F HAZLEHURST RAIN 52 49 91 CALM 30.13F ALMA LGT RAIN 50 47 89 E3 30.14R FOG 6HR MIN TEMP: 47; 6HR MAX TEMP: 52; 6HR PCP: 0.01; WAYCROSS LGT RAIN 54 52 91 NW3 30.15R JESUP RAIN 52 52 100 CALM 30.15R BAXLEY RAIN 52 46 82 CALM 30.15R BRUNSWICK CLOUDY 54 50 87 CALM 30.13S SAINT SIMONS CLOUDY 55 51 86 NE5 30.12F 6HR MIN TEMP: 53; 6HR MAX TEMP: 57; 6HR PCP: TRACE; $$ SCZ027-028-034-036>038-045-046-048>050-GAZ119-141-200700- ...LAKE AND SUPPLEMENTAL COASTAL OBSERVATIONS... STATION/POSITION TIME TEMP WIND PRES WAVE SWELL AIR SEA DIR/SP/G HT/PER HT/PER/DIR (UTC) (F) (DEG/KT/KT) (MB) (FT/S) (FT/S/D) UPR LAKE MARION NOT AVBL WINYAH BAY 0500 51 30/ 3 1021.0S LAKE MURRAY 0500 51 90/ 5/ 7 1021.3S ACE BASIN NERRS 0500 50 CALM 1021.0S FORT PULASKI 0600 53 56 40/ 4/ 5 1020.7F SAPELO ISLAND 0500 53 40/ 4 1020.0S $$ ANZ835-935-AMZ111-154-330-350-352-354-370-450-454-472-200700- ...C-MAN AND BUOY OBSERVATIONS... STATION/POSITION TIME TEMP WIND PRES WAVE SWELL AIR SEA DIR/SP/G HT/PER HT/PER/DIR (UTC) (F) (DEG/KT/KT) (MB) (FT/S) (FT/S/D) BUOY 41004 0600 65 68 50/ 6/ 8 1020.3R 2/ 4 2/ 8 BUOY 41008 0600 58 57 30/ 8/ 10 1020.0F 1/11 2/ 90/11 FOLLY BEACH CMAN 0500 55 30/ 7/ 8 1021.7R CAPERS NEARSHORE 0500 56 60/ 10/ 12 N/A FRIPP NEARSHORE NOT AVBL STATION/POSITION TIME TEMP WIND PRES WAVE SWELL AIR SEA DIR/SP/G HT/PER HT/PER/DIR (UTC) (F) (DEG/KT/KT) (MB) (FT/S) (FT/S/D) 5E ST. MARYS GA 0600 61 N/A 1/11 FRYING PAN BUOY 0600 57 62 70/ 10/ 14 1022.5R 2/10 2/170/10 BUOY 41025 0600 46 1022.9F 3/ 6 CAPE LOOKOUT NC 0500 45 20/ 9/ 11 1022.3F BUOY 41002 0504 65 72 50/ 4/ 6 1021.1R 2/11 2/ 70/11 BUOY 41010 0600 71 76 130/ 4/ 6 1019.1F 2/11 2/ 40/11 ST AUGUSTINE FL 0600 59 350/ 7/ 7 1019.3F $$

USA.gov is the U.S. government's official web portal to all federal, state and local government web resources and services.